TimePST,TemperatureF,Dew PointF,Humidity,Sea Level PressureIn,VisibilityMPH,Wind Direction,Wind SpeedMPH,Gust SpeedMPH,PrecipitationIn,Events,Conditions,WindDirDegrees,DateUTC
12:58 AM,54.0,44.8,71,30.18,10.0,East,5.8,-,N/A,,Overcast,100,2012-11-19 08:58:00
1:58 AM,54.0,44.4,70,30.17,10.0,East,6.9,-,N/A,,Overcast,90,2012-11-19 09:58:00
2:58 AM,53.2,45.3,74,30.17,10.0,ESE,5.8,-,N/A,,Overcast,110,2012-11-19 10:58:00
3:58 AM,54.1,43.9,68,30.18,10.0,ESE,5.8,-,N/A,,Overcast,120,2012-11-19 11:58:00
4:58 AM,54.3,44.1,68,30.17,10.0,ESE,4.6,-,N/A,,Overcast,110,2012-11-19 12:58:00
5:58 AM,53.2,46.0,77,30.18,10.0,ESE,6.9,-,N/A,,Overcast,110,2012-11-19 13:58:00
6:55 AM,53.6,44.6,72,30.19,10.0,East,5.8,-,N/A,,Overcast,100,2012-11-19 14:55:00
7:55 AM,55.4,44.6,67,30.20,10.0,ESE,8.1,-,N/A,,Overcast,120,2012-11-19 15:55:00
8:55 AM,59.0,46.4,63,30.22,10.0,ESE,6.9,-,N/A,,Mostly Cloudy,120,2012-11-19 16:55:00
9:58 AM,62.6,47.1,57,30.24,10.0,SSW,9.2,-,N/A,,Overcast,200,2012-11-19 17:58:00
10:29 AM,62.6,46.4,55,30.24,2.5,South,8.1,-,N/A,,Haze,190,2012-11-19 18:29:00
10:31 AM,62.6,46.4,55,30.24,3.0,South,8.1,-,N/A,,Haze,190,2012-11-19 18:31:00
10:55 AM,62.6,46.4,55,30.24,6.0,SSW,6.9,-,N/A,,Haze,200,2012-11-19 18:55:00
11:55 AM,62.6,48.2,59,30.22,10.0,South,8.1,-,N/A,,Overcast,180,2012-11-19 19:55:00
12:58 PM,63.7,46.2,53,30.19,10.0,South,6.9,-,N/A,,Mostly Cloudy,180,2012-11-19 20:58:00
1:58 PM,65.5,46.8,51,30.19,10.0,South,12.7,-,N/A,,Overcast,170,2012-11-19 21:58:00
2:58 PM,64.2,47.1,54,30.18,10.0,South,11.5,-,N/A,,Mostly Cloudy,170,2012-11-19 22:58:00
3:58 PM,62.8,49.5,62,30.18,10.0,South,5.8,-,N/A,,Overcast,180,2012-11-19 23:58:00
4:58 PM,60.8,49.6,67,30.18,10.0,SE,8.1,-,N/A,,Mostly Cloudy,130,2012-11-20 00:58:00
5:58 PM,60.6,49.3,66,30.19,10.0,ESE,8.1,-,N/A,,Mostly Cloudy,120,2012-11-20 01:58:00
6:58 PM,60.4,48.0,64,30.18,10.0,ESE,8.1,-,N/A,,Mostly Cloudy,110,2012-11-20 02:58:00
7:58 PM,59.9,47.5,64,30.17,10.0,ESE,10.4,-,N/A,,Mostly Cloudy,120,2012-11-20 03:58:00
8:55 PM,59.7,46.4,61,30.16,10.0,SE,6.9,-,N/A,,Mostly Cloudy,130,2012-11-20 04:55:00
9:58 PM,57.6,47.7,70,30.16,10.0,SSE,5.8,-,N/A,,Scattered Clouds,150,2012-11-20 05:58:00
10:55 PM,57.6,48.4,71,30.17,10.0,SW,6.9,-,N/A,,Overcast,230,2012-11-20 06:55:00
10:58 PM,57.6,48.4,71,30.16,10.0,SW,6.9,-,N/A,,Overcast,230,2012-11-20 06:58:00
11:58 PM,56.1,49.6,79,30.17,10.0,South,6.9,-,N/A,,Overcast,170,2012-11-20 07:58:00